DAL1428 KJFK-KMIA

Flight info

Callsign DAL1428
Flight time 2h 38m
Altitude 38000
Route DCT WAVEY DCT EMJAY Q167 KALDA Q101 SKARP Y313 HOAGG BNFSH2
Aircraft A21N/M-VGDW/C

Departure

Time 2026-05-08 22:00
Airport John F. Kennedy International Airport (KJFK)

Arrival

Time 2026-05-09 00:39
Airport Miami International Airport (KMIA)
Time Latitude Longitude Altitude Speed Heading
2026-05-08 21:43 40.63782 -73.78031 28 ft 0 kts 263°
2026-05-08 21:49 40.63783 -73.78028 28 ft 2 kts 263°
2026-05-08 21:49 40.63785 -73.78006 27 ft 2 kts 258°
2026-05-08 21:49 40.63789 -73.77985 26 ft 2 kts 253°
2026-05-08 21:49 40.63795 -73.77965 26 ft 2 kts 244°
2026-05-08 21:50 40.63804 -73.77947 26 ft 2 kts 229°
2026-05-08 21:50 40.63816 -73.77932 27 ft 2 kts 207°
2026-05-08 21:50 40.63832 -73.77926 25 ft 2 kts 185°
2026-05-08 21:50 40.63844 -73.77926 25 ft 1 kts 175°
2026-05-08 21:51 40.63846 -73.77926 25 ft 0 kts 174°
2026-05-08 21:52 40.63836 -73.77925 25 ft 3 kts 173°
2026-05-08 21:52 40.63810 -73.77920 28 ft 4 kts 173°
2026-05-08 21:52 40.63779 -73.77915 26 ft 5 kts 172°
2026-05-08 21:53 40.63742 -73.77908 25 ft 6 kts 172°
2026-05-08 21:53 40.63701 -73.77902 25 ft 6 kts 175°
2026-05-08 21:53 40.63656 -73.77895 26 ft 7 kts 173°
2026-05-08 21:53 40.63616 -73.77888 25 ft 1 kts 169°
2026-05-08 21:54 40.63613 -73.77887 25 ft 0 kts 170°
2026-05-08 21:54 40.63607 -73.77885 26 ft 2 kts 164°
2026-05-08 21:54 40.63551 -73.77819 27 ft 7 kts 137°
2026-05-08 21:55 40.63507 -73.77823 25 ft 11 kts 206°
2026-05-08 21:55 40.63404 -73.77910 24 ft 12 kts 203°
2026-05-08 21:55 40.63356 -73.77904 28 ft 5 kts 142°
2026-05-08 21:56 40.63215 -73.77597 30 ft 35 kts 121°
2026-05-08 21:56 40.63116 -73.77380 24 ft 18 kts 120°
2026-05-08 21:56 40.63051 -73.77239 25 ft 18 kts 121°
2026-05-08 21:56 40.63005 -73.77138 24 ft 8 kts 121°
2026-05-08 21:57 40.62979 -73.77095 26 ft 6 kts 146°
2026-05-08 21:57 40.62957 -73.77092 26 ft 2 kts 191°
2026-05-08 21:57 40.62925 -73.77107 26 ft 12 kts 205°
2026-05-08 21:57 40.62836 -73.77177 27 ft 15 kts 226°
2026-05-08 21:58 40.62837 -73.77255 27 ft 13 kts 293°
2026-05-08 21:58 40.62855 -73.77300 27 ft 0 kts 301°
2026-05-08 21:59 40.62868 -73.77327 27 ft 19 kts 301°
2026-05-08 21:59 40.63045 -73.77718 29 ft 79 kts 301°
2026-05-08 22:00 40.63437 -73.78582 27 ft 141 kts 300°
2026-05-08 22:00 40.63997 -73.79828 254 ft 166 kts 305°
2026-05-08 22:00 40.64573 -73.81189 835 ft 165 kts 295°
2026-05-08 22:00 40.64738 -73.82567 1680 ft 154 kts 257°
2026-05-08 22:01 40.64142 -73.83867 2085 ft 186 kts 230°
2026-05-08 22:01 40.63103 -73.85128 2435 ft 216 kts 223°
2026-05-08 22:01 40.61910 -73.86405 3245 ft 225 kts 217°
2026-05-08 22:01 40.60428 -73.87090 4215 ft 234 kts 187°
2026-05-08 22:02 40.58801 -73.86709 4803 ft 244 kts 160°
2026-05-08 22:02 40.57463 -73.85310 4959 ft 253 kts 127°
2026-05-08 22:02 40.56828 -73.83147 5492 ft 258 kts 97°
2026-05-08 22:02 40.56758 -73.80765 6271 ft 264 kts 89°
2026-05-08 22:03 40.56816 -73.78292 6754 ft 278 kts 88°
2026-05-08 22:03 40.56894 -73.75719 7177 ft 289 kts 87°
2026-05-08 22:03 40.56916 -73.73032 7666 ft 307 kts 97°
2026-05-08 22:03 40.56331 -73.70314 8386 ft 311 kts 122°
2026-05-08 22:04 40.55049 -73.68052 9262 ft 309 kts 139°
2026-05-08 22:04 40.53450 -73.66163 10090 ft 311 kts 147°
2026-05-08 22:04 40.51647 -73.64460 10537 ft 330 kts 152°
2026-05-08 22:04 40.49643 -73.62767 10834 ft 353 kts 153°
2026-05-08 22:05 40.47493 -73.60994 11129 ft 376 kts 153°
2026-05-08 22:05 40.45242 -73.59096 11635 ft 391 kts 152°
2026-05-08 22:05 40.42944 -73.57096 12293 ft 402 kts 150°
2026-05-08 22:05 40.40602 -73.55008 12994 ft 411 kts 150°
2026-05-08 22:06 40.38226 -73.52859 13683 ft 419 kts 149°
2026-05-08 22:06 40.35804 -73.50656 14289 ft 427 kts 149°
2026-05-08 22:06 40.33289 -73.48574 14985 ft 426 kts 159°
2026-05-08 22:06 40.30542 -73.47282 15746 ft 415 kts 176°
2026-05-08 22:07 40.27754 -73.47146 16469 ft 399 kts 197°
2026-05-08 22:07 40.25065 -73.48008 17208 ft 390 kts 207°
2026-05-08 22:07 40.22566 -73.49335 17920 ft 387 kts 213°
2026-05-08 22:07 40.20179 -73.50888 18549 ft 387 kts 216°
2026-05-08 22:08 40.17802 -73.52553 19134 ft 388 kts 217°
2026-05-08 22:08 40.15419 -73.54236 19714 ft 390 kts 216°
2026-05-08 22:08 40.13023 -73.55891 20394 ft 390 kts 216°
2026-05-08 22:08 40.10597 -73.57526 20955 ft 394 kts 216°
2026-05-08 22:09 40.08132 -73.59151 21479 ft 397 kts 216°
2026-05-08 22:09 40.05641 -73.60768 22046 ft 400 kts 215°
2026-05-08 22:09 40.03135 -73.62379 22596 ft 403 kts 216°
2026-05-08 22:09 40.00642 -73.63976 23061 ft 406 kts 216°
2026-05-08 22:10 39.98092 -73.65607 23591 ft 408 kts 216°
2026-05-08 22:10 39.95536 -73.67240 23969 ft 411 kts 216°
2026-05-08 22:10 39.92961 -73.68884 24405 ft 413 kts 216°
2026-05-08 22:10 39.90374 -73.70537 24821 ft 415 kts 216°
2026-05-08 22:11 39.87769 -73.72203 25225 ft 417 kts 217°
2026-05-08 22:11 39.85161 -73.73870 25624 ft 419 kts 217°
2026-05-08 22:11 39.82533 -73.75548 26014 ft 421 kts 217°
2026-05-08 22:11 39.79923 -73.77214 26389 ft 423 kts 217°
2026-05-08 22:12 39.77238 -73.78925 26759 ft 425 kts 217°
2026-05-08 22:12 39.74577 -73.80619 27114 ft 426 kts 217°
2026-05-08 22:12 39.71908 -73.82314 27501 ft 427 kts 217°
2026-05-08 22:12 39.69271 -73.83990 27857 ft 428 kts 217°
2026-05-08 22:13 39.66599 -73.85683 28322 ft 427 kts 217°
2026-05-08 22:13 39.63932 -73.87370 28809 ft 425 kts 217°
2026-05-08 22:13 39.61281 -73.89047 29272 ft 423 kts 217°
2026-05-08 22:13 39.58629 -73.90724 29728 ft 422 kts 218°
2026-05-08 22:14 39.55990 -73.92393 30142 ft 421 kts 218°
2026-05-08 22:14 39.53363 -73.94054 30510 ft 420 kts 218°
2026-05-08 22:14 39.50744 -73.95709 30873 ft 418 kts 218°
2026-05-08 22:14 39.48126 -73.97362 31232 ft 417 kts 218°
2026-05-08 22:15 39.45525 -73.99003 31573 ft 416 kts 218°
2026-05-08 22:15 39.42949 -74.00678 31932 ft 410 kts 221°
2026-05-08 22:15 39.40583 -74.02633 32241 ft 398 kts 229°
2026-05-08 22:15 39.38409 -74.04802 32563 ft 393 kts 230°
2026-05-08 22:16 39.36297 -74.07026 32844 ft 390 kts 231°
2026-05-08 22:16 39.34229 -74.09271 33210 ft 386 kts 232°
2026-05-08 22:16 39.32190 -74.11513 33547 ft 384 kts 232°
2026-05-08 22:16 39.30159 -74.13756 33837 ft 383 kts 232°
2026-05-08 22:17 39.28131 -74.15992 34091 ft 383 kts 232°
2026-05-08 22:17 39.26134 -74.18185 34293 ft 382 kts 232°
2026-05-08 22:17 39.24109 -74.20399 34515 ft 381 kts 232°
2026-05-08 22:17 39.22081 -74.22609 34733 ft 381 kts 232°
2026-05-08 22:18 39.20054 -74.24813 34935 ft 380 kts 232°
2026-05-08 22:18 39.18033 -74.27007 35139 ft 380 kts 232°
2026-05-08 22:18 39.16010 -74.29198 35327 ft 378 kts 232°
2026-05-08 22:18 39.14001 -74.31371 35561 ft 377 kts 232°
2026-05-08 22:19 39.11995 -74.33542 35751 ft 376 kts 232°
2026-05-08 22:19 39.09992 -74.35712 35910 ft 376 kts 232°
2026-05-08 22:19 39.07990 -74.37878 36080 ft 375 kts 232°
2026-05-08 22:19 39.05995 -74.40035 36261 ft 374 kts 232°
2026-05-08 22:20 39.04022 -74.42167 36422 ft 374 kts 232°
2026-05-08 22:20 39.02029 -74.44317 36574 ft 374 kts 232°
2026-05-08 22:20 39.00030 -74.46473 36718 ft 374 kts 232°
2026-05-08 22:20 38.98040 -74.48617 36832 ft 373 kts 232°
2026-05-08 22:21 38.96048 -74.50761 36976 ft 373 kts 232°
2026-05-08 22:21 38.94066 -74.52910 37115 ft 371 kts 233°
2026-05-08 22:21 38.92126 -74.55102 37252 ft 370 kts 233°
2026-05-08 22:21 38.90226 -74.57313 37374 ft 368 kts 234°
2026-05-08 22:22 38.88337 -74.59542 37487 ft 368 kts 234°
2026-05-08 22:22 38.84589 -74.63976 37658 ft 369 kts 234°
2026-05-08 22:23 38.80789 -74.68442 37830 ft 371 kts 234°
2026-05-08 22:23 38.76968 -74.72906 37949 ft 371 kts 234°
2026-05-08 22:24 38.73054 -74.77304 38009 ft 377 kts 232°
2026-05-08 22:24 38.68983 -74.81548 38009 ft 378 kts 231°
2026-05-08 22:25 38.64886 -74.85756 38013 ft 377 kts 231°
2026-05-08 22:25 38.60803 -74.89974 38010 ft 377 kts 231°
2026-05-08 22:26 38.56730 -74.94197 38017 ft 377 kts 232°
2026-05-08 22:26 38.52677 -74.98424 38017 ft 375 kts 232°
2026-05-08 22:27 38.48757 -75.02735 38020 ft 373 kts 233°
2026-05-08 22:27 38.44760 -75.07015 38018 ft 378 kts 230°
2026-05-08 22:28 38.40541 -75.11065 38016 ft 380 kts 229°
2026-05-08 22:28 38.36278 -75.15045 38015 ft 378 kts 230°
2026-05-08 22:29 38.32050 -75.19015 38017 ft 377 kts 230°
2026-05-08 22:29 38.27833 -75.23005 38016 ft 377 kts 230°
2026-05-08 22:30 38.23622 -75.26992 38019 ft 377 kts 230°
2026-05-08 22:30 38.19415 -75.30970 38020 ft 377 kts 230°
2026-05-08 22:31 38.15214 -75.34930 38014 ft 375 kts 231°
2026-05-08 22:31 38.11027 -75.38872 38015 ft 374 kts 231°
2026-05-08 22:32 38.06869 -75.42785 38023 ft 374 kts 231°
2026-05-08 22:32 38.02636 -75.46642 38028 ft 375 kts 229°
2026-05-08 22:33 37.98324 -75.50398 37970 ft 376 kts 229°
2026-05-08 22:33 37.94014 -75.54121 38045 ft 374 kts 229°
2026-05-08 22:34 37.89712 -75.57845 38046 ft 375 kts 228°
2026-05-08 22:34 37.87435 -75.59547 38044 ft 386 kts 222°
2026-05-08 22:34 37.84916 -75.60916 38042 ft 402 kts 214°
2026-05-08 22:34 37.82151 -75.61823 38041 ft 421 kts 205°
2026-05-08 22:35 37.79159 -75.62141 38035 ft 443 kts 196°
2026-05-08 22:35 37.72895 -75.61718 38039 ft 456 kts 191°
2026-05-08 22:36 37.66709 -75.61658 38038 ft 431 kts 202°
2026-05-08 22:36 37.60826 -75.62639 38035 ft 424 kts 206°
2026-05-08 22:37 37.55033 -75.63883 38034 ft 421 kts 207°
2026-05-08 22:37 37.49265 -75.65174 38039 ft 421 kts 207°
2026-05-08 22:38 37.43518 -75.66438 38040 ft 422 kts 206°
2026-05-08 22:38 37.37730 -75.67690 38047 ft 422 kts 206°
2026-05-08 22:39 37.31935 -75.68933 38049 ft 422 kts 206°
2026-05-08 22:39 37.26150 -75.70170 38056 ft 421 kts 207°
2026-05-08 22:40 37.20364 -75.71409 38056 ft 421 kts 207°
2026-05-08 22:40 37.14622 -75.72638 38060 ft 421 kts 207°
2026-05-08 22:41 37.08850 -75.73890 38060 ft 417 kts 210°
2026-05-08 22:41 37.06105 -75.74814 38053 ft 400 kts 217°
2026-05-08 22:41 37.03595 -75.76117 38063 ft 384 kts 223°
2026-05-08 22:42 36.99671 -75.78647 38049 ft 379 kts 225°
2026-05-08 22:42 36.95099 -75.81840 38053 ft 375 kts 226°
2026-05-08 22:43 36.90563 -75.85043 38054 ft 374 kts 226°
2026-05-08 22:43 36.86014 -75.88222 38009 ft 374 kts 226°
2026-05-08 22:44 36.81471 -75.91363 38051 ft 372 kts 226°
2026-05-08 22:44 36.76973 -75.94466 38046 ft 372 kts 226°
2026-05-08 22:45 36.72444 -75.97589 38044 ft 371 kts 226°
2026-05-08 22:45 36.67921 -76.00704 38053 ft 372 kts 226°
2026-05-08 22:46 36.63390 -76.03819 38040 ft 371 kts 226°
2026-05-08 22:46 36.58874 -76.06917 38056 ft 370 kts 226°
2026-05-08 22:47 36.54365 -76.10009 38052 ft 370 kts 226°
2026-05-08 22:47 36.49857 -76.13098 38054 ft 370 kts 226°
2026-05-08 22:48 36.45371 -76.16166 38053 ft 370 kts 226°
2026-05-08 22:48 36.40869 -76.19238 38049 ft 369 kts 226°
2026-05-08 22:49 36.36379 -76.22296 38051 ft 367 kts 226°
2026-05-08 22:49 36.29660 -76.26874 38054 ft 367 kts 226°
2026-05-08 22:50 36.25178 -76.29923 38054 ft 367 kts 226°
2026-05-08 22:50 36.20699 -76.32963 38054 ft 367 kts 226°
2026-05-08 22:51 36.16227 -76.35993 38053 ft 366 kts 226°
2026-05-08 22:51 36.11768 -76.39011 38050 ft 365 kts 226°
2026-05-08 22:52 36.07338 -76.42008 38053 ft 365 kts 226°
2026-05-08 22:52 36.02872 -76.45025 38050 ft 365 kts 226°
2026-05-08 22:53 35.98411 -76.48034 38055 ft 365 kts 225°
2026-05-08 22:53 35.93962 -76.51028 38049 ft 364 kts 225°
2026-05-08 22:54 35.89521 -76.54001 38056 ft 364 kts 225°
2026-05-08 22:54 35.85026 -76.56844 38045 ft 366 kts 224°
2026-05-08 22:55 35.80455 -76.59646 38056 ft 367 kts 224°
2026-05-08 22:55 35.75884 -76.62443 38056 ft 367 kts 224°
2026-05-08 22:56 35.71323 -76.65243 38047 ft 366 kts 224°
2026-05-08 22:56 35.66772 -76.68041 38051 ft 365 kts 224°
2026-05-08 22:57 35.62223 -76.70838 38050 ft 365 kts 224°
2026-05-08 22:57 35.57670 -76.73633 38052 ft 365 kts 224°
2026-05-08 22:58 35.53119 -76.76422 38054 ft 365 kts 224°
2026-05-08 22:58 35.48561 -76.79213 38062 ft 367 kts 224°
2026-05-08 22:59 35.43968 -76.82029 38053 ft 370 kts 224°
2026-05-08 22:59 35.39361 -76.84838 38052 ft 370 kts 224°
2026-05-08 23:00 35.34779 -76.87626 38051 ft 370 kts 223°
2026-05-08 23:00 35.30183 -76.90418 38054 ft 367 kts 224°
2026-05-08 23:01 35.25606 -76.93202 38054 ft 367 kts 224°
2026-05-08 23:01 35.21058 -76.96011 38058 ft 365 kts 224°
2026-05-08 23:02 35.16533 -76.98854 38056 ft 365 kts 224°
2026-05-08 23:02 35.12044 -77.01677 38067 ft 365 kts 224°
2026-05-08 23:03 35.07520 -77.04512 38063 ft 365 kts 224°
2026-05-08 23:03 35.02995 -77.07341 38064 ft 366 kts 224°
2026-05-08 23:04 34.98443 -77.10186 38063 ft 368 kts 224°
2026-05-08 23:04 34.93876 -77.13031 38064 ft 368 kts 224°
2026-05-08 23:05 34.89308 -77.15871 38065 ft 368 kts 224°
2026-05-08 23:05 34.84742 -77.18709 38068 ft 368 kts 224°
2026-05-08 23:06 34.80177 -77.21544 38064 ft 369 kts 224°
2026-05-08 23:06 34.75580 -77.24400 38052 ft 372 kts 223°
2026-05-08 23:07 34.70979 -77.27245 38065 ft 371 kts 223°
2026-05-08 23:07 34.66383 -77.30085 38064 ft 370 kts 223°
2026-05-08 23:08 34.61812 -77.32909 38066 ft 370 kts 223°
2026-05-08 23:08 34.57222 -77.35742 38057 ft 370 kts 223°
2026-05-08 23:09 34.55696 -77.36684 38067 ft 371 kts 223°
2026-05-08 23:10 34.44713 -77.41855 38069 ft 403 kts 208°
2026-05-08 23:10 34.42130 -77.42430 38067 ft 407 kts 207°
2026-05-08 23:10 34.36497 -77.43511 38066 ft 410 kts 206°
2026-05-08 23:11 34.30863 -77.44551 38066 ft 410 kts 205°
2026-05-08 23:11 34.25216 -77.45629 38068 ft 412 kts 205°
2026-05-08 23:12 34.19559 -77.46726 38070 ft 411 kts 205°
2026-05-08 23:12 34.13938 -77.47821 38065 ft 411 kts 205°
2026-05-08 23:13 34.08281 -77.48922 38030 ft 411 kts 204°
2026-05-08 23:13 34.02604 -77.50030 38069 ft 415 kts 204°
2026-05-08 23:14 33.96889 -77.51142 38068 ft 416 kts 204°
2026-05-08 23:14 33.91170 -77.52245 38063 ft 416 kts 204°
2026-05-08 23:15 33.85452 -77.53348 38065 ft 416 kts 204°
2026-05-08 23:15 33.79732 -77.54455 38066 ft 417 kts 204°
2026-05-08 23:16 33.74021 -77.55560 38064 ft 419 kts 204°
2026-05-08 23:16 33.68260 -77.56669 38061 ft 419 kts 204°
2026-05-08 23:17 33.62501 -77.57774 38064 ft 419 kts 204°
2026-05-08 23:17 33.56832 -77.59118 38051 ft 408 kts 208°
2026-05-08 23:18 33.51355 -77.60942 38064 ft 409 kts 210°
2026-05-08 23:18 33.45898 -77.62860 38064 ft 408 kts 210°
2026-05-08 23:19 33.40447 -77.64785 38064 ft 408 kts 210°
2026-05-08 23:19 33.34987 -77.66700 38061 ft 408 kts 210°
2026-05-08 23:20 33.30451 -77.68284 38059 ft 409 kts 210°
2026-05-08 23:20 33.24985 -77.70188 38062 ft 409 kts 210°
2026-05-08 23:21 33.19524 -77.72087 38061 ft 409 kts 210°
2026-05-08 23:21 33.14062 -77.73984 38061 ft 409 kts 210°
2026-05-08 23:22 33.08636 -77.75867 38058 ft 409 kts 210°
2026-05-08 23:22 33.03178 -77.77758 38058 ft 407 kts 209°
2026-05-08 23:23 32.97747 -77.79636 38060 ft 406 kts 209°
2026-05-08 23:23 32.92311 -77.81516 38059 ft 406 kts 209°
2026-05-08 23:24 32.86874 -77.83395 38056 ft 406 kts 209°
2026-05-08 23:24 32.81444 -77.85268 38056 ft 406 kts 209°
2026-05-08 23:25 32.76039 -77.87129 38052 ft 407 kts 209°
2026-05-08 23:25 32.70597 -77.89001 38054 ft 407 kts 209°
2026-05-08 23:26 32.65156 -77.90850 38049 ft 407 kts 208°
2026-05-08 23:26 32.59681 -77.92634 38050 ft 408 kts 208°
2026-05-08 23:27 32.54189 -77.94404 38047 ft 409 kts 208°
2026-05-08 23:27 32.48723 -77.96169 38052 ft 410 kts 207°
2026-05-08 23:28 32.43234 -77.97941 38048 ft 409 kts 207°
2026-05-08 23:28 32.37741 -77.99716 38048 ft 409 kts 207°
2026-05-08 23:29 32.32254 -78.01488 38045 ft 409 kts 207°
2026-05-08 23:29 32.26756 -78.03264 38045 ft 411 kts 207°
2026-05-08 23:30 32.21221 -78.05049 38042 ft 413 kts 207°
2026-05-08 23:30 32.15710 -78.06819 38039 ft 413 kts 207°
2026-05-08 23:31 32.10164 -78.08598 38037 ft 413 kts 207°
2026-05-08 23:31 32.04626 -78.10374 38000 ft 412 kts 208°
2026-05-08 23:32 31.99066 -78.12157 38040 ft 415 kts 208°
2026-05-08 23:32 31.93481 -78.13946 38038 ft 416 kts 208°
2026-05-08 23:33 31.87893 -78.15730 38041 ft 416 kts 208°
2026-05-08 23:33 31.82310 -78.17510 38035 ft 416 kts 208°
2026-05-08 23:34 31.76727 -78.19290 38032 ft 416 kts 208°
2026-05-08 23:34 31.71117 -78.21079 38039 ft 418 kts 208°
2026-05-08 23:35 31.65502 -78.22864 38039 ft 418 kts 208°
2026-05-08 23:35 31.59924 -78.24634 38039 ft 418 kts 208°
2026-05-08 23:36 31.54310 -78.26414 38039 ft 418 kts 208°
2026-05-08 23:36 31.48686 -78.28197 38039 ft 419 kts 207°
2026-05-08 23:37 31.43061 -78.30030 38039 ft 419 kts 208°
2026-05-08 23:37 31.37461 -78.31911 38037 ft 418 kts 208°
2026-05-08 23:38 31.31893 -78.33786 38037 ft 418 kts 208°
2026-05-08 23:38 31.26293 -78.35663 37996 ft 418 kts 208°
2026-05-08 23:39 31.20688 -78.37537 38035 ft 420 kts 208°
2026-05-08 23:39 31.15055 -78.39416 38035 ft 421 kts 207°
2026-05-08 23:40 31.09430 -78.41287 38035 ft 420 kts 208°
2026-05-08 23:40 31.03801 -78.43158 38036 ft 420 kts 208°
2026-05-08 23:41 30.98171 -78.45028 38032 ft 421 kts 208°
2026-05-08 23:41 30.92523 -78.46905 38041 ft 423 kts 207°
2026-05-08 23:42 30.86855 -78.48783 38039 ft 423 kts 207°
2026-05-08 23:42 30.81224 -78.50645 38037 ft 423 kts 207°
2026-05-08 23:43 30.75562 -78.52516 38031 ft 423 kts 207°
2026-05-08 23:43 30.69905 -78.54384 38032 ft 423 kts 208°
2026-05-08 23:44 30.64227 -78.56259 38034 ft 424 kts 208°
2026-05-08 23:44 30.58550 -78.58128 38032 ft 424 kts 208°
2026-05-08 23:45 30.52858 -78.60000 38040 ft 424 kts 208°
2026-05-08 23:45 30.47174 -78.61867 38037 ft 424 kts 208°
2026-05-08 23:46 30.41484 -78.63735 38041 ft 425 kts 208°
2026-05-08 23:46 30.35781 -78.65605 38024 ft 425 kts 208°
2026-05-08 23:47 30.30091 -78.67467 38039 ft 425 kts 208°
2026-05-08 23:47 30.24403 -78.69326 38025 ft 424 kts 208°
2026-05-08 23:48 30.18767 -78.71166 38031 ft 423 kts 208°
2026-05-08 23:48 30.13100 -78.73014 38024 ft 423 kts 208°
2026-05-08 23:49 30.07434 -78.74861 38028 ft 423 kts 208°
2026-05-08 23:49 30.01762 -78.76707 38032 ft 423 kts 208°
2026-05-08 23:50 29.96093 -78.78549 38036 ft 423 kts 208°
2026-05-08 23:50 29.90425 -78.80390 38018 ft 423 kts 207°
2026-05-08 23:51 29.84727 -78.82240 38031 ft 426 kts 207°
2026-05-08 23:51 29.79055 -78.84082 38031 ft 425 kts 208°
2026-05-08 23:52 29.73436 -78.86143 38032 ft 423 kts 209°
2026-05-08 23:52 29.67854 -78.88255 38029 ft 423 kts 209°
2026-05-08 23:53 29.62264 -78.90363 38029 ft 423 kts 208°
2026-05-08 23:53 29.56662 -78.92471 38028 ft 424 kts 208°
2026-05-08 23:54 29.51055 -78.94576 38028 ft 424 kts 208°
2026-05-08 23:55 29.42646 -78.97729 38028 ft 424 kts 208°
2026-05-08 23:55 29.37070 -78.99817 38014 ft 424 kts 208°
2026-05-08 23:56 29.31461 -79.01915 38026 ft 424 kts 208°
2026-05-08 23:56 29.25834 -79.04017 38023 ft 424 kts 208°
2026-05-08 23:57 29.20220 -79.06111 38033 ft 424 kts 208°
2026-05-08 23:57 29.14615 -79.08199 38023 ft 422 kts 208°
2026-05-08 23:58 29.09026 -79.10280 37982 ft 422 kts 208°
2026-05-08 23:58 29.03431 -79.12363 38026 ft 424 kts 208°
2026-05-08 23:59 28.97838 -79.14440 38013 ft 425 kts 208°
2026-05-08 23:59 28.92208 -79.16528 38014 ft 425 kts 208°
2026-05-09 00:00 28.86578 -79.18614 38021 ft 425 kts 208°
2026-05-09 00:00 28.80946 -79.20698 37990 ft 425 kts 207°
2026-05-09 00:01 28.75300 -79.22788 38021 ft 428 kts 207°
2026-05-09 00:01 28.69663 -79.24869 38018 ft 429 kts 207°
2026-05-09 00:02 28.64271 -79.27440 38019 ft 404 kts 227°
2026-05-09 00:02 28.60217 -79.31716 38020 ft 403 kts 226°
2026-05-09 00:03 28.55420 -79.35215 38016 ft 419 kts 214°
2026-05-09 00:03 28.49715 -79.37142 38019 ft 442 kts 195°
2026-05-09 00:04 28.43477 -79.37521 38014 ft 452 kts 191°
2026-05-09 00:04 28.38250 -79.37699 38015 ft 452 kts 191°
2026-05-09 00:05 28.30896 -79.37969 38019 ft 452 kts 191°
2026-05-09 00:05 28.24610 -79.38210 37981 ft 452 kts 191°
2026-05-09 00:06 28.18351 -79.38455 38018 ft 453 kts 190°
2026-05-09 00:06 28.12050 -79.38700 38018 ft 453 kts 190°
2026-05-09 00:07 28.06798 -79.38904 38017 ft 453 kts 190°
2026-05-09 00:07 28.00492 -79.39149 38018 ft 453 kts 190°
2026-05-09 00:08 27.94196 -79.39394 38006 ft 452 kts 190°
2026-05-09 00:08 27.87879 -79.39640 38018 ft 454 kts 190°
2026-05-09 00:09 27.81560 -79.39885 38015 ft 454 kts 190°
2026-05-09 00:09 27.75243 -79.40129 38018 ft 454 kts 190°
2026-05-09 00:10 27.68931 -79.40374 38021 ft 454 kts 190°
2026-05-09 00:10 27.62652 -79.40617 38017 ft 454 kts 189°
2026-05-09 00:11 27.56312 -79.40862 38023 ft 455 kts 189°
2026-05-09 00:11 27.49976 -79.41106 38014 ft 455 kts 189°
2026-05-09 00:12 27.43641 -79.41350 38009 ft 455 kts 189°
2026-05-09 00:12 27.37302 -79.41594 38018 ft 455 kts 189°
2026-05-09 00:13 27.30994 -79.41994 38015 ft 448 kts 198°
2026-05-09 00:13 27.25101 -79.43844 38017 ft 437 kts 206°
2026-05-09 00:14 27.19326 -79.45979 38013 ft 436 kts 206°
2026-05-09 00:14 27.13586 -79.48090 38017 ft 436 kts 206°
2026-05-09 00:15 27.07815 -79.50202 37983 ft 436 kts 205°
2026-05-09 00:15 27.02022 -79.52317 38017 ft 439 kts 205°
2026-05-09 00:15 26.99108 -79.53379 37795 ft 439 kts 205°
2026-05-09 00:16 26.96220 -79.54429 36844 ft 436 kts 205°
2026-05-09 00:16 26.93319 -79.55486 35568 ft 441 kts 205°
2026-05-09 00:16 26.90380 -79.56558 34347 ft 445 kts 205°
2026-05-09 00:16 26.87435 -79.57626 33038 ft 447 kts 204°
2026-05-09 00:17 26.84469 -79.58696 31667 ft 449 kts 204°
2026-05-09 00:17 26.81488 -79.59771 30291 ft 450 kts 204°
2026-05-09 00:17 26.78500 -79.60848 28618 ft 452 kts 204°
2026-05-09 00:17 26.75488 -79.61934 26818 ft 457 kts 203°
2026-05-09 00:18 26.72461 -79.63024 25352 ft 455 kts 203°
2026-05-09 00:18 26.69485 -79.64090 24539 ft 440 kts 203°
2026-05-09 00:18 26.66674 -79.65089 24485 ft 405 kts 203°
2026-05-09 00:18 26.64070 -79.66015 24119 ft 385 kts 204°
2026-05-09 00:19 26.61540 -79.66918 23109 ft 382 kts 203°
2026-05-09 00:19 26.58995 -79.67821 21866 ft 385 kts 202°
2026-05-09 00:19 26.56486 -79.68705 20885 ft 380 kts 202°
2026-05-09 00:19 26.53980 -79.69584 19948 ft 374 kts 201°
2026-05-09 00:20 26.51504 -79.70451 19031 ft 369 kts 201°
2026-05-09 00:20 26.49076 -79.71301 18092 ft 364 kts 200°
2026-05-09 00:20 26.46718 -79.72263 17033 ft 357 kts 209°
2026-05-09 00:20 26.44703 -79.73824 16012 ft 350 kts 224°
2026-05-09 00:21 26.43017 -79.75753 15425 ft 344 kts 228°
2026-05-09 00:21 26.41406 -79.77728 15244 ft 344 kts 229°
2026-05-09 00:21 26.39797 -79.79707 15038 ft 344 kts 228°
2026-05-09 00:21 26.38256 -79.81735 14797 ft 342 kts 233°
2026-05-09 00:22 26.36869 -79.83875 14602 ft 336 kts 235°
2026-05-09 00:22 26.35562 -79.85969 14450 ft 321 kts 235°
2026-05-09 00:22 26.34331 -79.87949 14253 ft 309 kts 235°
2026-05-09 00:22 26.33123 -79.89890 14050 ft 301 kts 235°
2026-05-09 00:23 26.31926 -79.91808 13831 ft 301 kts 235°
2026-05-09 00:23 26.30728 -79.93726 13569 ft 302 kts 235°
2026-05-09 00:23 26.29529 -79.95641 13382 ft 301 kts 235°
2026-05-09 00:23 26.28332 -79.97552 13190 ft 300 kts 235°
2026-05-09 00:24 26.27139 -79.99455 13001 ft 299 kts 234°
2026-05-09 00:24 26.25811 -80.01230 12807 ft 298 kts 221°
2026-05-09 00:24 26.24052 -80.02410 12615 ft 297 kts 200°
2026-05-09 00:24 26.22057 -80.03011 12423 ft 297 kts 193°
2026-05-09 00:25 26.20028 -80.03470 12232 ft 297 kts 192°
2026-05-09 00:25 26.18025 -80.03906 12048 ft 296 kts 192°
2026-05-09 00:25 26.16009 -80.04349 11855 ft 295 kts 192°
2026-05-09 00:25 26.13997 -80.04798 11668 ft 294 kts 192°
2026-05-09 00:26 26.11990 -80.05251 11477 ft 293 kts 192°
2026-05-09 00:26 26.09998 -80.05703 11292 ft 292 kts 192°
2026-05-09 00:26 26.08010 -80.06155 11107 ft 291 kts 192°
2026-05-09 00:26 26.06029 -80.06639 10942 ft 290 kts 193°
2026-05-09 00:27 26.04067 -80.07143 10655 ft 288 kts 193°
2026-05-09 00:27 26.02140 -80.07643 10406 ft 286 kts 193°
2026-05-09 00:27 26.00207 -80.08146 10166 ft 285 kts 193°
2026-05-09 00:27 25.98280 -80.08647 9927 ft 283 kts 193°
2026-05-09 00:28 25.96363 -80.09145 9675 ft 282 kts 193°
2026-05-09 00:28 25.94483 -80.09732 9406 ft 279 kts 201°
2026-05-09 00:28 25.92789 -80.10747 8634 ft 279 kts 217°
2026-05-09 00:28 25.91488 -80.12363 7781 ft 285 kts 239°
2026-05-09 00:29 25.90886 -80.14445 7054 ft 286 kts 265°
2026-05-09 00:29 25.90951 -80.16650 6360 ft 285 kts 276°
2026-05-09 00:29 25.91190 -80.18824 5686 ft 281 kts 278°
2026-05-09 00:29 25.91442 -80.20927 5080 ft 276 kts 278°
2026-05-09 00:30 25.91783 -80.23008 4454 ft 271 kts 285°
2026-05-09 00:30 25.92288 -80.24988 4087 ft 258 kts 288°
2026-05-09 00:30 25.92876 -80.26818 3844 ft 245 kts 292°
2026-05-09 00:30 25.93507 -80.28563 3947 ft 245 kts 292°
2026-05-09 00:31 25.94159 -80.30316 4004 ft 245 kts 292°
2026-05-09 00:31 25.94810 -80.32066 4008 ft 245 kts 293°
2026-05-09 00:31 25.95459 -80.33818 4005 ft 245 kts 293°
2026-05-09 00:31 25.96106 -80.35563 4011 ft 242 kts 293°
2026-05-09 00:32 25.96740 -80.37281 4002 ft 239 kts 292°
2026-05-09 00:32 25.97373 -80.38989 3918 ft 239 kts 293°
2026-05-09 00:32 25.97815 -80.40756 3660 ft 237 kts 270°
2026-05-09 00:32 25.97447 -80.42491 3368 ft 231 kts 238°
2026-05-09 00:33 25.96366 -80.43765 3088 ft 227 kts 217°
2026-05-09 00:33 25.95183 -80.44929 2843 ft 228 kts 222°
2026-05-09 00:33 25.94047 -80.46164 2625 ft 229 kts 223°
2026-05-09 00:33 25.92925 -80.47410 2368 ft 227 kts 224°
2026-05-09 00:34 25.91807 -80.48633 2117 ft 225 kts 223°
2026-05-09 00:34 25.90509 -80.49526 1957 ft 217 kts 189°
2026-05-09 00:34 25.89056 -80.49429 2016 ft 211 kts 156°
2026-05-09 00:34 25.87923 -80.48444 2009 ft 209 kts 123°
2026-05-09 00:35 25.87293 -80.46988 2005 ft 210 kts 110°
2026-05-09 00:35 25.86842 -80.45437 1999 ft 212 kts 104°
2026-05-09 00:35 25.86568 -80.43878 1994 ft 196 kts 101°
2026-05-09 00:35 25.86189 -80.42523 1995 ft 180 kts 115°
2026-05-09 00:36 25.85602 -80.41322 2000 ft 176 kts 120°
2026-05-09 00:36 25.84986 -80.40153 1972 ft 175 kts 119°
2026-05-09 00:36 25.84412 -80.39028 1816 ft 159 kts 120°
2026-05-09 00:36 25.83886 -80.37998 1563 ft 148 kts 119°
2026-05-09 00:37 25.83391 -80.37029 1357 ft 142 kts 119°
2026-05-09 00:37 25.82910 -80.36078 1165 ft 140 kts 120°
2026-05-09 00:37 25.82445 -80.35126 950 ft 140 kts 118°
2026-05-09 00:37 25.81966 -80.34197 784 ft 136 kts 121°
2026-05-09 00:38 25.81493 -80.33294 653 ft 141 kts 120°
2026-05-09 00:38 25.81000 -80.32306 520 ft 151 kts 122°
2026-05-09 00:38 25.80484 -80.31295 314 ft 149 kts 122°
2026-05-09 00:38 25.79978 -80.30319 69 ft 145 kts 120°
2026-05-09 00:39 25.79511 -80.29411 24 ft 109 kts 120°
2026-05-09 00:39 25.79303 -80.28959 22 ft 25 kts 92°
2026-05-09 00:39 25.79363 -80.28887 22 ft 11 kts
2026-05-09 00:39 25.79475 -80.28892 25 ft 23 kts 355°
2026-05-09 00:40 25.79572 -80.28849 27 ft 12 kts 72°
2026-05-09 00:40 25.79571 -80.28726 26 ft 21 kts 80°
2026-05-09 00:40 25.79592 -80.28629 25 ft 6 kts 88°
2026-05-09 00:41 25.79534 -80.28562 27 ft 5 kts 127°
2026-05-09 00:41 25.79525 -80.28517 24 ft 7 kts 96°
2026-05-09 00:41 25.79522 -80.28486 24 ft 0 kts 95°
2026-05-09 00:41 25.79522 -80.28479 24 ft 1 kts 94°
2026-05-09 00:42 25.79521 -80.28471 24 ft 0 kts 95°
2026-05-09 00:42 25.79521 -80.28467 24 ft 0 kts 96°